Skip Page Navigation
NASA JPL Caltech
NASA Logo - Jet Propulsion Laboratory + View the NASA Portal
+ Center for Near-Earth Object Studies
JPL Home Earth Solar System Stars & Galaxies Technology
JPL Solar System Dynamics
BODIES ORBITS EPHEMERIDES TOOLS PHYSICAL DATA DISCOVERY FAQ SITE MAP

Significant website upgrade scheduled for September 27. More details available here.

JPL Small-Body Database Browser
Search: [ help ]  
(2017 FN101)
Classification: Apollo [NEO]          SPK-ID: 3772985
Ephemeris | Orbit Diagram | Orbital Elements | Mission Design | Physical Parameters | Close-Approach Data ]

[ hide orbit diagram ]

For accurate long-term ephemerides, please instead use our Horizons system.This orbit viewer was implemented using two-body methods, and hence should not be used for determining accurate long-term trajectories (over several years or decades) or planetary encounter circumstances.


Orbital Elements at Epoch 2459396.5 (2021-Jul-01.0) TDB
Reference: JPL 6 (heliocentric ecliptic J2000)
 Element Value Uncertainty (1-sigma)   Units 
e .5050719252530227 0.00057242  
a 1.996373554997929 0.0022706 au
q .9880613200509036 1.8973e-05 au
i 4.671384726835807 0.00362 deg
node 34.63135141464649 0.003802 deg
peri 181.4872574078945 0.00045462 deg
M 174.7023061980055 0.91546 deg
tp 2458896.514653086638
(2020-Feb-17.01465309)
1.767 TDB
period 1030.293925741349
2.82
1.7578
0.004813
d
yr
n .3494148524082208 0.00059613 deg/d
Q 3.004685789944954 0.0034175 au
  Orbit Determination Parameters
   # obs. used (total)      60  
   data-arc span      18 days  
   first obs. used      2017-03-22  
   last obs. used      2017-04-09  
   planetary ephem.      DE441  
   SB-pert. ephem.      SB441-N16  
   condition code      7  
   norm. resid. RMS      .39589  
   source      ORB  
   producer      Otto Matic  
   solution date      2021-Apr-15 18:53:45  

Additional Information
 Earth MOID = .0153706 au 
 Jupiter MOID = 1.96651 au 
 T_jup = 3.672 
[ show covariance matrix ]

Ephemeris | Orbit Diagram | Orbital Elements | Mission Design | Physical Parameters | Close-Approach Data ]

Physical Parameter Table
Parameter Symbol Value Units Sigma Reference Notes
absolute magnitude H 24.7   n/a MPO438036  

[ show close-approach data ]
Ephemeris | Orbit Diagram | Orbital Elements | Mission Design | Physical Parameters | Close-Approach Data ]
ABOUT SSD CREDITS/AWARDS PRIVACY/COPYRIGHT GLOSSARY LINKS
FirstGov 2021-Sep-22 18:48 UT
(server date/time)  
NASA Home Page
Site Manager:   Ryan S. Park
Webmaster  Alan B. Chamberlin